GW6549 Weather Reports


Display with metric or nautical units.
time (UTC)temp
F
wind
direction
speed
MPH
gust
MPH
rain 1hr
in
rain 24hr
in
rain mn
in
humidity
%
barometer
mb
20260504202030 74 334 4.0 10.0 0.00 0.00 0.00 33 1008.4
20260504201047 74 1 4.0 8.0 0.00 0.00 0.00 35 1008.4
20260504200027 74 44 2.0 6.0 0.00 0.00 0.00 33 1008.4
20260504195047 74 10 3.0 8.0 0.00 0.00 0.00 37 1008.4
20260504194045 74 266 3.0 7.0 0.00 0.00 0.00 35 1008.4
20260504193046 73 52 3.0 7.0 0.00 0.00 0.00 36 1008.4
20260504192027 72 209 1.0 3.0 0.00 0.00 0.00 37 1008.4
20260504191027 71 34 2.0 7.0 0.00 0.00 0.00 38 1008.4
20260504190025 71 5 4.0 8.0 0.00 0.00 0.00 35 1008.4
20260504185025 71 35 4.0 9.0 0.00 0.00 0.00 37 1008.6
20260504184145 70 20 3.0 7.0 0.00 0.00 0.00 37 1008.6
20260504183023 70 45 3.0 7.0 0.00 0.00 0.00 39 1008.5
20260504182023 70 36 4.0 7.0 0.00 0.00 0.00 40 1008.6
20260504181022 69 64 2.0 6.0 0.00 0.00 0.00 40 1008.7
20260504180017 69 39 3.0 9.0 0.00 0.00 0.00 40 1008.8
20260504175016 68 46 3.0 8.0 0.00 0.00 0.00 41 1008.8
20260504174016 67 51 4.0 8.0 0.00 0.00 0.00 41 1008.8
20260504173050 66 44 4.0 11.0 0.00 0.00 0.00 42 1008.5
20260504172049 66 61 4.0 10.0 0.00 0.00 0.00 42 1008.5
20260504171031 65 35 4.0 9.0 0.00 0.00 0.00 42 1008.6
20260504151027 58 90 1.0 5.0 0.00 0.00 0.00 56 1008.8
20260504141047 53 25 3.0 5.0 0.00 0.00 0.00 60 1008.4
20260504081027 57 31 4.0 5.0 0.00 0.00 0.00 44 1008.4
20260504060110 58 34 3.0 6.0 0.00 0.00 0.00 45 1009.2
20260504045018 62 30 2.0 2.0 0.00 0.00 0.00 44 1009.2
20260504044023 63 39 2.0 3.0 0.00 0.00 0.00 43 1009.4
20260504043022 64 110 1.0 3.0 0.00 0.00 0.00 42 1009.5
20260504042024 65 56 2.0 3.0 0.00 0.00 0.00 39 1009.2
20260504041045 67 197 2.0 2.0 0.00 0.00 0.00 38 1009.2
20260504040024 68 213 0.0 1.0 0.00 0.00 0.00 40 1009.2
20260504035025 69 256 0.0 1.0 0.00 0.00 0.00 30 1009.2
20260504034049 69 257 2.0 3.0 0.00 0.00 0.00 29 1009.2
20260504033017 69 241 2.0 2.0 0.00 0.00 0.00 29 1009.1
20260504032038 70 241 1.0 2.0 0.00 0.00 0.00 28 1009.1
20260504031044 70 242 2.0 2.0 0.00 0.00 0.00 28 1009.2
20260504030022 70 242 2.0 2.0 0.00 0.00 0.00 28 1008.9
20260504025022 71 244 1.0 2.0 0.00 0.00 0.00 28 1009.2
20260504024043 71 271 3.0 3.0 0.00 0.00 0.00 29 1009.2
20260504023023 72 262 3.0 3.0 0.00 0.00 0.00 30 1009.2
20260504022023 72 273 3.0 5.0 0.00 0.00 0.00 28 1009.2
20260504021043 72 272 3.0 5.0 0.00 0.00 0.00 31 1009.2
20260504020022 72 274 4.0 6.0 0.00 0.00 0.00 31 1009.2
20260504015021 72 281 5.0 6.0 0.00 0.00 0.00 30 1009.2
20260504014023 73 284 5.0 7.0 0.00 0.00 0.00 31 1009.5
20260504013024 73 276 5.0 9.0 0.00 0.00 0.00 31 1009.5
20260504012025 74 285 6.0 8.0 0.00 0.00 0.00 29 1009.5
20260504011046 74 278 4.0 7.0 0.00 0.00 0.00 29 1009.5
20260504010046 74 254 3.0 6.0 0.00 0.00 0.00 31 1009.8
20260504005047 75 281 5.0 8.0 0.00 0.00 0.00 27 1009.9
20260504004025 75 282 5.0 7.0 0.00 0.00 0.00 26 1009.8
20260504003027 76 279 5.0 8.0 0.00 0.00 0.00 25 1009.9
20260504002026 76 259 3.0 6.0 0.00 0.00 0.00 27 1009.9
20260504001105 76 268 5.0 9.0 0.00 0.00 0.00 25 1010.1
20260504000024 76 266 4.0 6.0 0.00 0.00 0.00 23 1010.3
20260503235024 77 282 6.0 10.0 0.00 0.00 0.00 22 1010.3
20260503234044 77 252 3.0 8.0 0.00 0.00 0.00 26 1010.3
20260503233024 76 250 4.0 6.0 0.00 0.00 0.00 26 1010.5
20260503232023 76 214 4.0 8.0 0.00 0.00 0.00 25 1010.5
20260503231044 76 228 4.0 8.0 0.00 0.00 0.00 25 1010.6
20260503230025 75 240 5.0 10.0 0.00 0.00 0.00 27 1010.9
20260503225046 75 248 4.0 8.0 0.00 0.00 0.00 29 1011.0
20260503224024 75 254 5.0 10.0 0.00 0.00 0.00 29 1011.1
20260503223024 75 264 6.0 10.0 0.00 0.00 0.00 29 1011.4
20260503222024 75 273 5.0 8.0 0.00 0.00 0.00 28 1011.5
20260503221043 75 267 5.0 8.0 0.00 0.00 0.00 31 1011.7
20260503220024 75 283 7.0 13.0 0.00 0.00 0.00 28 1011.9
20260503215022 75 256 4.0 8.0 0.00 0.00 0.00 28 1012.1
20260503214017 74 260 4.0 8.0 0.00 0.00 0.00 28 1012.1
20260503213110 74 247 4.0 8.0 0.00 0.00 0.00 29 1012.5
20260503212050 73 256 4.0 7.0 0.00 0.00 0.00 29 1012.5
20260503211028 73 281 7.0 13.0 0.00 0.00 0.00 30 1012.5
20260503210027 73 269 7.0 17.0 0.00 0.00 0.00 31 1012.8
20260503205028 73 278 9.0 15.0 0.00 0.00 0.00 31 1012.8
20260503204109 73 262 5.0 11.0 0.00 0.00 0.00 31 1012.9
20260503203049 72 266 6.0 9.0 0.00 0.00 0.00 32 1013.1